Regional Weather Roundup
Issued by NWS

Home | Current Version | Previous Version | Text Only | Print | Product List | Glossary Off
Versions: 1 2 3 4 5 6 7 8 9 10 11 12 13 14 15 16 17 18 19 20 21 22 23 24 25 26 27 28 29 30 31 32 33 34 35 36 37 38 39 40 41 42 43 44 45 46 47 48 49 50

000
ASUS43 KMKX 301621
RWRWI

WISCONSIN REGIONAL WEATHER ROUNDUP
NATIONAL WEATHER SERVICE MILWAUKEE/SULLIVAN WI
1100 AM CDT SUN AUG 30 2015

NOTE: "FAIR" INDICATES FEW OR NO CLOUDS BELOW 12,000 FEET WITH NO
SIGNIFICANT WEATHER AND/OR OBSTRUCTIONS TO VISIBILITY.

WIZ001-002-006>008-014>016-023>028-301700-
NORTHWEST WISCONSIN

CITY           SKY/WX    TMP DP  RH WIND       PRES   REMARKS
SUPERIOR ARPT  SUNNY     73  64  73 SW12      29.93S
ASHLAND        SUNNY     74  65  73 S10       29.95S
HAYWARD        SUNNY     69  61  75 S10       30.00S
SIREN          SUNNY     71  62  72 S8        29.98F
CUMBERLAND     CLOUDY    64  61  88 S9        30.02S
RICE LAKE      CLOUDY    65  60  84 S7        30.04S
CHETEK         CLOUDY   N/A N/A N/A S8        30.04S
LADYSMITH      CLOUDY    66  63  89 S10       30.05S
EAU CLAIRE     CLOUDY    68  62  81 SW10      30.04R
MENOMONIE      CLOUDY    65  65  99 S8        30.04S
NEW RICHMOND   SUNNY     70  62  77 SW9       30.02S
OSCEOLA        MOSUNNY   70  65  85 S9        30.03S
$$

WIZ003>005-009-010-017-018-301700-
NORTH CENTRAL WISCONSIN

CITY           SKY/WX    TMP DP  RH WIND       PRES   REMARKS
MANITOWISH WTR CLOUDY    67  63  86 S12       30.03F
ARBOR VITAE    CLOUDY    65  62  89 S7        30.04F
WOODRUFF       CLOUDY    65  62  89 S7        30.04F
RHINELANDER    CLOUDY    64  60  87 SW9       30.07S
EAGLE RIVER    CLOUDY    66  59  79 W8        30.04F
LAND O LAKES   SUNNY     70  60  71 S7        30.04S
PHILLIPS       CLOUDY    66  63  88 S8        30.03S
TOMAHAWK       CLOUDY    63  62  97 CALM      30.06S
MEDFORD        CLOUDY    65  62  91 S9        30.06S
MERRILL        CLOUDY    65  63  92 SW8       30.07S
$$

WIZ029-030-035-036-043>047-301700-
CENTRAL WISCONSIN

CITY           SKY/WX    TMP DP  RH WIND       PRES   REMARKS
WAUSAU         PTSUNNY   66  60  81 SW9       30.06S
MOSINEE        CLOUDY    64  64 100 SW8       30.09S
MARSHFIELD     PTSUNNY   69  60  73 SW10      30.07S
STEVENS POINT  MOSUNNY   66  60  79 SW8       30.08F
WAUPACA        MOSUNNY   67  66  96 SW3       30.09R
WAUTOMA        CLOUDY    66  64  94 SW6       30.09S
WISC RAPIDS    MOSUNNY   70  60  70 SW8       30.09S
CAMP DOUGLAS   CLOUDY    68  68 100 S6        30.07F
$$

WIZ011>013-019>022-031-037>040-048>050-301700-
NORTHEAST WISCONSIN

CITY           SKY/WX    TMP DP  RH WIND       PRES   REMARKS
ANTIGO         CLOUDY    63  61  91 W9        30.08S
SHAWANO        MOSUNNY   67  65  94 SW7       30.08S
OCONTO         PTSUNNY   68  64  85 W6        30.06S
STURGEON BAY   PTSUNNY   68  61  77 SW9       30.09S
GREEN BAY      SUNNY     68  62  81 SW6       30.07F
MANITOWOC      CLOUDY    67  63  87 MISG      30.09S
APPLETON       PTSUNNY   66  61  82 VRB3      30.07S
CLINTONVILLE   PTSUNNY   68  61  77 SW5       30.07S
OSHKOSH        PTSUNNY   66  62  87 S6        30.08S FOG
$$

WIZ032>034-041-042-053>061-301700-
SOUTHWEST WISCONSIN

CITY           SKY/WX    TMP DP  RH WIND       PRES   REMARKS
LA CROSSE      CLOUDY    67  63  87 S7        30.07R
SPARTA         CLOUDY    69  60  72 SW6       30.08R
VIROQUA          N/A     66  62  85 S8        30.09S
BOSCOBEL       CLOUDY    71  62  73 CALM      30.09S
PRAIRIE DU CHI CLOUDY    66  64  95 CALM      30.08S
PLATTEVILLE    CLOUDY    69  64  83 S3        30.10S
$$

WIZ056-057-062-063-064-067-068-301700-
SOUTH CENTRAL WISCONSIN

CITY           SKY/WX    TMP DP  RH WIND       PRES   REMARKS
REEDSBURG      MOSUNNY   69  62  78 S7        30.09S
BARABOO/DELLS  SUNNY     70  59  69 S8        30.09S
LONE ROCK      MOSUNNY   71  62  73 SW5       30.09S
MINERAL POINT  MOSUNNY   70  63  78 SW3       30.11R
MADISON        PTSUNNY   69  59  70 VRB3      30.09S
MIDDLETON      MOSUNNY   72  59  65 SE3       30.10S
WATERTOWN      CLOUDY    67  64  89 SW3       30.09S
MONROE         CLOUDY    66  59  77 SE3       30.11R
JANESVILLE     NOT AVBL
$$

WIZ051-052-058>065-066-070>072-301700-
SOUTHEAST WISCONSIN

CITY           SKY/WX    TMP DP  RH WIND       PRES   REMARKS
MILWAUKEE      PTSUNNY   69  63  81 NE5       30.08F
WAUKESHA       CLOUDY    64  61  88 CALM      30.10S
MILWAUKEE/TIMM CLOUDY    68  61  77 CALM      30.09F
RACINE         CLOUDY    69  63  81 NE7       30.10F
BURLINGTON     CLOUDY    67  61  81 CALM      30.10S
KENOSHA        CLOUDY    68  64  87 NW5       30.09F
FOND DU LAC    MOSUNNY   70  63  78 VRB6      30.09S
SHEBOYGAN      MOSUNNY   67  62  84 S5        30.09S
WEST BEND      CLOUDY    68  59  73 CALM      30.10S
JUNEAU         PTSUNNY   65  61  89 S3        30.11S
$$

LSZ147-162-301700-
LAKE SUPERIOR

STATION/POSITION TIME  TEMP    WIND        PRES    WAVE
                       AIR SEA DIR/SP/G            HT/PER
                 (UTC) (F)     (DEG/KT/KT) (MB)    (FT/S)
W MID LAKE BUOY  1550   59 54  210/ 14/ 16 1013.1F   1/ 3
DEVILS ISLAND    1600   62     220/  6/  9 1013.3F
PORT WING        1500   69     200/ 11/ 14 1013.9
SAXON HARBOR     1500   71     200/  7/ 14 1013.5
$$

LMZ867-665-643>646-301700-
LAKE MICHIGAN

STATION/POSITION TIME  TEMP    WIND        PRES    WAVE
                       AIR SEA DIR/SP/G            HT/PER
                 (UTC) (F)     (DEG/KT/KT) (MB)    (FT/S)
CHAMBERS ISLAND  1500   63     160/  5/  9 1017.9R
S GREEN BAY BUOY 1500   61 62  210/  8/ 10 1019.4
N MID LAKE BUOY  1550   64 65  200/ 12/ 14 1017.6S   1
NORTHPORT PIER   1500   64     140/  6/  8 1017.6S
SISTER BAY       1504   72     190/  6/  6   N/A
SHEBOYGAN LAKESH 1600   55     150/  5/  5 1019.3R
PORT WASHINGTON  1500   60      80/  2/  3 1019.6S
ATWATER BUOY     1600   56 51   CALM  /  2 1020.3S
MILWAUKEE LAKESH 1500   57      40/  5/  6   N/A
S MID LAKE BUOY  1550   67 68  360/  8/ 10 1018.1S   1
KENOSHA   LAKESH 1600   61      30/  6/  6 1018.6S
$$

TC  - TEMPERATURE IN CELSIUS
VSB - VISIBILITY IN STATUTE MILES
WCI - WIND CHILL INDEX
HX  - HEAT INDEX




USA.gov is the U.S. government's official web portal to all federal, state and local government web resources and services.